Regional Weather Roundup
Issued by NWS

Home | Current Version | Previous Version | Text Only | Print | Product List | Glossary Off
Versions: 1 2 3 4 5 6 7 8 9 10 11 12 13 14 15 16 17 18 19 20 21 22 23 24 25 26 27 28 29 30 31 32 33 34 35 36 37 38 39 40 41 42 43 44 45 46 47 48 49 50

000
ASUS45 KBOU 062107
RWRCO

WEATHER ROUNDUP FOR COLORADO
NATIONAL WEATHER SERVICE DENVER/BOULDER CO
200 PM MST SAT FEB 06 2016

NOTE: "FAIR" INDICATES FEW OR NO CLOUDS BELOW 12000 FEET WITH NO
SIGNIFICANT WEATHER AND/OR OBSTRUCTIONS TO VISIBILITY.

COZ001>005-013-030-031-062200-
...NORTHWEST COLORADO...

CITY           SKY/WX    TMP DP  RH WIND       PRES   REMARKS
CRAIG          CLOUDY    20  12  71 S3        30.40F
HAYDEN         SUNNY     21   9  58 NE3       30.39F
MEEKER         SUNNY     25  12  58 CALM      30.40F
MOUNT WERNER   NOT AVBL
STEAMBOAT SPGS SUNNY     20   8  61 CALM      30.38F
WALDEN         SUNNY     30  14  51 S15G23    30.29F WCI  19
$$

COZ006>008-011-062200-
...WEST CENTRAL VALLEYS...

CITY           SKY/WX    TMP DP  RH WIND       PRES   REMARKS
GRAND JUNCTION SUNNY     22  15  75 CALM      30.52F
MONTROSE       SUNNY     27  12  53 NE5       30.50F WCI  22
EAGLE          SUNNY     25  10  54 CALM      30.47F
RIFLE          MOSUNNY   26   9  48 N3        30.49F
DELTA          SUNNY     30  15  53 SW6       30.50F WCI  24
NUCLA          SUNNY     32  14  47 CALM      30.49F
$$

COZ017>023-064>068-062200-
...SOUTHWEST COLORADO...

CITY           SKY/WX    TMP DP  RH WIND       PRES   REMARKS
DURANGO        SUNNY     30  13  49 NE3       30.39F
CORTEZ         SUNNY     33  19  56 SW5       30.42F WCI  29
PAGOSA SPRINGS SUNNY     32  11  42 CALM      30.36F
TELLURIDE      SUNNY     38  11  32 W12       30.39F
WOLF CREEK PAS SUNNY     30  10  43 NW7       30.39F WCI  23
$$

COZ009-010-012-014-032>034-037-058>063-062200-
...CENTRAL COLORADO...

CITY           SKY/WX    TMP DP  RH WIND       PRES   REMARKS
ASPEN          MOSUNNY   26  13  57 NW8       30.38F WCI  18
BUENA VISTA    SUNNY     41  15  34 N13G22    30.27F
COPPER MTN     CLOUDY    23  10  58 NW15G25   30.36S WCI  10
BERTHOUD PASS  SNOW      12   1  62 MISG      30.23R VSB 1/4
COTTONWOOD PAS SUNNY     37   9  30 SW18G30   30.29F
GUNNISON       CLOUDY     3  -6  66 SE5       30.50F WCI  -6
KREMMLING      CLOUDY    12   1  62 CALM      30.42F
LEADVILLE      CLOUDY    31  11  43 NW8       30.32F WCI  23
MONARCH PASS     N/A     14  12  92 MISG      30.41F
SALIDA         NOT AVBL
SUNLIGHT       MOSUNNY   30  25  80 CALM        N/A
WILKERSON PASS CLOUDY    32  12  43 W5        30.32R WCI  27
$$

COZ069>075-062200-
...SAN LUIS VALLEY/SANGRE DE CRISTO MOUNTAINS...

CITY           SKY/WX    TMP DP  RH WIND       PRES   REMARKS
ALAMOSA        SUNNY     31   5  33 SW3       30.34F
LA VETA PASS   CLOUDY    30  10  43 MISG      30.26R
SAGUACHE       CLOUDY    30   9  40 CALM      30.37F
$$

COZ035-036-038>040-062200-
...NORTHERN COLORADO FRONT RANGE...

CITY           SKY/WX    TMP DP  RH WIND       PRES   REMARKS
DENVER INTL AP CLOUDY    44  21  40 W14       30.11F
DMNS CITY PARK   N/A     48  15  27 W13G22    30.12S
AURORA         PTSUNNY   46  17  31 W12       30.13F
FRONT RANGE AP NOT AVBL
ERIE MUNI ARPT CLOUDY    38  20  47 S5        30.11F
BOULDER MUN AP CLOUDY    52  19  28 W14G26    30.10F
CENTENNIAL     CLOUDY    47  15  27 NW12      30.13F
BROOMFIELD     PTSUNNY   45  19  36 W14       30.12F
FORT COLLINS   CLOUDY    37  21  52 CALM      30.11F
LONGMONT       CLOUDY    44  17  33 CALM      30.11F
$$

COZ041-046-047-076>085-087-088-062200-
...PIKES PEAK/PALMER DIVIDE AND SOUTHERN FOOTHILLS...

CITY           SKY/WX    TMP DP  RH WIND       PRES   REMARKS
COLO. SPRINGS  CLOUDY    43  10  26 NE7       30.17S
A. F. ACADEMY  CLOUDY    44   7  21 E1        30.16R
SCHRIEVER AFB  FAIR      40  13  33 N6        30.17S
ELLICOTT       NOT AVBL
FALCON         CLOUDY    42  11  28 W3        30.18S
FORT CARSON    CLOUDY    42  17  35 CALM      30.15S
LIMON          CLOUDY    35  18  49 VRB3      30.15S
MONUMENT HILL  CLOUDY    43  19  39 NW16G22   30.17F
TRINIDAD       SUNNY     54  11  18 E7        30.16F
$$

COZ042>045-048>051-090-091-062200-
...NORTHEAST COLORADO...

CITY           SKY/WX    TMP DP  RH WIND       PRES   REMARKS
GREELEY ARPT   CLOUDY    36  21  55 SW3       30.11F
AKRON          CLOUDY    36  21  54 SW10      30.08F
BURLINGTON     CLOUDY    37  22  54 SW15      30.13F
WRAY           CLOUDY    43  24  48 SW9       30.10F
STERLING       CLOUDY    32  21  64 SW10      30.08F WCI  24
HOLYOKE        CLOUDY    37  27  65 W10       30.08F
FORT MORGAN    CLOUDY    33  20  57 W9        30.10F WCI  26
$$

COZ086-089-092>099-062200-
...SOUTHEAST COLORADO...

CITY           SKY/WX    TMP DP  RH WIND       PRES   REMARKS
PUEBLO         CLOUDY    44  20  38 NE6       30.14F
LA JUNTA       CLOUDY    51  23  33 VRB3      30.15F
LAMAR          CLOUDY    50  22  33 SW8       30.16F
SPRINGFIELD      N/A     54  10  17 S7        30.16F
$$



USA.gov is the U.S. government's official web portal to all federal, state and local government web resources and services.